Regional Weather Roundup
Issued by NWS

Home | Current Version | Previous Version | Graphics & Text | Print | Product List | Glossary On
Versions: 1 2 3 4 5 6 7 8 9 10 11 12 13 14 15 16 17 18 19 20 21 22 23 24 25 26 27 28 29 30 31 32 33 34 35 36 37 38 39 40 41 42 43 44 45 46 47 48 49 50
000
ASUS43 KTOP 251859
RWRKS

WEATHER ROUNDUP FOR KANSAS
NATIONAL WEATHER SERVICE GOODLAND KS
200 PM CDT SAT OCT 25 2014

NOTE:  "FAIR" INDICATES FEW OR NO CLOUDS BELOW 12,000 FEET WITH NO
SIGNIFICANT WEATHER AND/OR OBSTRUCTIONS TO VISIBILITY.

KSZ001>006-013>018-027>032-041>047-252000-
NORTHWEST KANSAS

CITY           SKY/WX    TMP DP  RH WIND       PRES   REMARKS
GOODLAND       SUNNY     81  35  19 VRB5      30.10F
HAYS           SUNNY     81  54  39 SE5       30.05F
HILL CITY      SUNNY     79  48  33 SE9       30.05F
RUSSELL        SUNNY     85  51  31 S9        30.03F
$$

KSZ061>065-074>080-084>089-252000-
SOUTHWEST KANSAS

CITY           SKY/WX    TMP DP  RH WIND       PRES   REMARKS
DODGE CITY     SUNNY     89  42  19 S13G20    30.06F
ELKHART          N/A     85  41  21 SW7         N/A
GARDEN CITY    SUNNY     88  41  19 S15G23    30.05F
GREAT BEND     SUNNY     86  54  32 S10       30.04F
LIBERAL        SUNNY     86  48  26 S13G18    30.08F
$$

KSZ066>073-081>083-090>101-252000-
SOUTHEAST KANSAS

CITY           SKY/WX    TMP DP  RH WIND       PRES   REMARKS
CHANUTE        SUNNY     82  64  54 CALM      30.04F
COFFEYVILLE    SUNNY     81  65  58 S7        30.04F
HUTCHINSON     SUNNY     88  58  36 SE7       30.03F
NEWTON         SUNNY     86  59  39 S6        30.06F
PARSONS        SUNNY     82  66  58 SW6       30.05F
WICHITA INTL   SUNNY     88  60  38 S9        30.03F
WICHITA JABRA  SUNNY     86  60  41 S8        30.03F
WINFIELD       SUNNY     86  64  47 SE7       30.04F
$$

KSZ007>012-019>026-033>040-048>060-102>105-252000-
NORTHEAST KANSAS

CITY           SKY/WX    TMP DP  RH WIND       PRES   REMARKS
CONCORDIA      SUNNY     79  59  50 E9        30.04F
EMPORIA        SUNNY     82  63  52 SE6       30.03F
LAWRENCE       SUNNY     75  58  55 SE6       30.05F
MANHATTAN      SUNNY     81  65  58 NE9       30.03F
OLATHE IND     SUNNY     79  58  48 VRB6      30.06F
OLATHE EXE     SUNNY     78  60  53 E6        30.05F
SALINA         SUNNY     85  63  47 VRB3      30.02F
TOPEKA BILLARD SUNNY     79  61  53 E5        30.04F
TOPEKA FORBES  SUNNY     78  60  53 VRB6      30.05F
$$



USA.gov is the U.S. government's official web portal to all federal, state and local government web resources and services.